sat.trackr.live / text

‹ back to catalog

STARLINK-37567

NORAD 68903 · 2026-097J

PAYLOAD ACTIVE UNKNOWN

§ Identity

Operator
Country
US
Launch date
2026-04-30
Launch site
AFWTR
Launch vehicle
Mass (kg)
RCS (m²)

Purposes: comms

External: N2YO · Heavens-Above · Gunter

§ Orbital elements

Epoch: 2026-09-20T04:44:19.400064Z

Period
93.91 min
Inclination
97.2841°
Eccentricity
0.0001855
Mean motion
15.33434643 rev/d
Perigee alt
464.3 km
Apogee alt
466.8 km
Semi-major
6,843.7 km
B*
4.4910e-4
RAAN
97.3174°
Arg perigee
99.3886°
Mean anomaly
260.7566°
Rev number
2,204

§ Raw data

STARLINK-375671 68903U 26097J   26263.19744676  .00014447  00000+0  44910-3 0  99932 68903  97.2841  97.3174 0001855  99.3886 260.7566 15.33434643 22048

JSON: /api/v1/satellites/68903 · /tle

For live sub-satellite position, see the globe view (requires WebGL).

§ Visibility from observer

Set your observer location to see the next 7 days of passes ≥ 10°. The values pass through the URL so the page stays shareable.

No JS? Fill the form by hand. The geolocation button needs JavaScript.